Location: Castiglione Fibocchi
(43.5333°N, 11.7667°E)
Time: 10:12:22
(UTC+00:00)

Resurs 1-4 Rocket - Pass Details

Date: 15 August 2020
Orbit: 799 x 815 km, 98.6° (Epoch: 18 September)

Event Time Altitude Azimuth Distance (km) Brightness Sun altitude
Rises 01:33:49 0° 7° (N) 3,325 6.2 -24.6°
Reaches altitude 10° 01:36:16 10° 0° (N) 2,388 5.2 -24.4°
Maximum altitude 01:41:10 41° 292° (WNW) 1,146 2.7 -23.8°
Enters shadow 01:41:36 40° 279° (W) 1,161 2.6 -23.8°
